Change the Weather History Date:

Monday, March 11, 2013

  Actual Average Record
Temperature  
Mean Temperature 44 °F 47 °F  
Max Temperature 52 °F 57 °F 79 °F (2006)
Min Temperature 35 °F 36 °F 16 °F (1998)
Degree Days  
Heating Degree Days 21 18  
Month to date heating degree days 260 219  
Since 1 July heating degree days 3371 3515  
Cooling Degree Days 0 0  
Month to date cooling degree days 0 0  
Year to date cooling degree days 0 0  
Moisture  
Dew Point 36 °F    
Average Humidity 79    
Maximum Humidity 93    
Minimum Humidity 64    
Precipitation  
Precipitation T in 0.12 in 1.68 in (1943)
Month to date precipitation 0.66 1.30  
Year to date precipitation 12.41 8.89  
Snow  
Snow 0.00 in 0.10 in 2.00 in (1960)
Month to date snowfall 0.6 0.4  
Since 1 July snowfall 6.7 8.9  
Snow Depth 0.00 in    
Sea Level Pressure  
Sea Level Pressure 29.84 in    
Wind  
Wind Speed 11 mph (WSW)    
Max Wind Speed 21 mph    
Max Gust Speed 28 mph    
Visibility 10 miles    
Events Rain    
T = Trace of Precipitation, MM = Missing Value Source: NWS Daily Summary

Daily Weather History Graph

Daily Weather History Graph

Search for Another Location

Airport or City:

Trip Planner

Search our weather history database for the weather conditions in past years. The results will help you decide how hot, cold, wet, or windy it might be!

Date:

Astronomy

Mar. 11, 2013 Rise Set
Actual Time 7:11 AM CDT 6:58 PM CDT
Civil Twilight 6:45 AM CDT 7:24 PM CDT
Nautical Twilight 6:15 AM CDT 7:55 PM CDT
Astronomical Twilight 5:45 AM CDT 8:25 PM CDT
Moon 6:45 AM CDT (3/11) 7:09 PM CDT (3/11)
Length of Visible Light 12h 39m
Length of Day
11h 47m
Waning Crescent, 0% of the Moon is Illuminated
Mar 11
Waning Crescent
Mar 11
New
Mar 19
First Quarter
Mar 27
Full
Apr 2
Last Quarter

Hourly Weather History & Observations

Time (CDT) Temp. Windchill Dew Point Humidity Pressure Visibility Wind Dir Wind Speed Gust Speed Precip Events Conditions
12:18 AM 51.8 °F - 48.2 °F 88% 29.76 in 10.0 mi SSW 6.9 mph - N/A   Mostly Cloudy
12:33 AM 51.8 °F - 48.2 °F 88% 29.76 in 10.0 mi SSW 10.4 mph - N/A   Mostly Cloudy
12:53 AM 51.1 °F - 48.9 °F 92% 29.75 in 10.0 mi SSW 9.2 mph - N/A   Mostly Cloudy
1:53 AM 48.9 °F - 45.0 °F 86% 29.78 in 10.0 mi West 11.5 mph - 0.00 in   Overcast
2:53 AM 48.0 °F - 44.1 °F 86% 29.76 in 10.0 mi SW 5.8 mph - N/A   Overcast
3:53 AM 46.9 °F - 44.1 °F 90% 29.74 in 10.0 mi SSW 5.8 mph - N/A   Mostly Cloudy
4:16 AM 46.4 °F 41.5 °F 42.8 °F 87% 29.78 in 10.0 mi SW 10.4 mph - N/A   Overcast
4:44 AM 46.4 °F 41.5 °F 41.0 °F 81% 29.78 in 10.0 mi SW 10.4 mph 19.6 mph N/A   Overcast
4:53 AM 45.0 °F 38.9 °F 39.9 °F 82% 29.77 in 10.0 mi SW 12.7 mph - N/A   Overcast
5:53 AM 43.0 °F 35.7 °F 39.0 °F 86% 29.76 in 10.0 mi SW 15.0 mph 18.4 mph N/A   Mostly Cloudy
6:20 AM 42.8 °F 36.2 °F 37.4 °F 81% 29.78 in 10.0 mi SW 12.7 mph - N/A   Overcast
6:53 AM 42.8 °F 37.0 °F 37.4 °F 81% 29.78 in 10.0 mi SW 10.4 mph - N/A   Overcast
7:53 AM 42.1 °F 35.2 °F 37.0 °F 82% 29.79 in 10.0 mi SW 12.7 mph - N/A   Overcast
8:40 AM 41.0 °F 32.5 °F 35.6 °F 81% 29.81 in 10.0 mi WSW 17.3 mph - N/A   Overcast
8:53 AM 39.9 °F 31.4 °F 36.0 °F 86% 29.81 in 10.0 mi WSW 16.1 mph - N/A   Overcast
9:14 AM 39.2 °F 30.5 °F 35.6 °F 87% 29.83 in 4.0 mi WSW 16.1 mph - N/A   Overcast
9:17 AM 39.2 °F 30.8 °F 35.6 °F 87% 29.83 in 3.0 mi WSW 15.0 mph - 0.00 in Rain Light Rain
9:53 AM 39.0 °F 29.9 °F 36.0 °F 89% 29.83 in 10.0 mi WSW 17.3 mph - 0.00 in   Overcast
10:04 AM 39.2 °F 31.6 °F 35.6 °F 87% 29.82 in 10.0 mi WSW 12.7 mph - N/A   Overcast
10:53 AM 39.9 °F 33.4 °F 35.1 °F 83% 29.83 in 10.0 mi WSW 10.4 mph - N/A   Overcast
11:53 AM 39.9 °F 32.1 °F 33.1 °F 77% 29.84 in 10.0 mi West 13.8 mph - N/A   Overcast
12:53 PM 37.9 °F 28.2 °F 33.1 °F 83% 29.86 in 7.0 mi West 18.4 mph 25.3 mph 0.00 in Rain Light Rain
1:53 PM 39.9 °F 30.0 °F 32.0 °F 73% 29.85 in 10.0 mi WSW 21.9 mph 27.6 mph 0.00 in   Overcast
2:53 PM 39.0 °F 31.0 °F 32.0 °F 76% 29.86 in 10.0 mi West 13.8 mph - N/A   Overcast
3:53 PM 39.0 °F 31.8 °F 32.0 °F 76% 29.86 in 10.0 mi WSW 11.5 mph - N/A   Overcast
4:53 PM 39.9 °F 32.5 °F 30.0 °F 68% 29.88 in 10.0 mi West 12.7 mph 21.9 mph N/A   Overcast
5:27 PM 39.2 °F 31.6 °F 30.2 °F 70% 29.89 in 10.0 mi West 12.7 mph - N/A   Overcast
5:51 PM 39.2 °F 31.6 °F 30.2 °F 70% 29.91 in 10.0 mi West 12.7 mph 21.9 mph N/A   Overcast
5:53 PM 39.0 °F 31.4 °F 30.0 °F 70% 29.91 in 10.0 mi West 12.7 mph 21.9 mph N/A   Overcast
6:53 PM 39.0 °F 32.8 °F 28.9 °F 67% 29.93 in 10.0 mi West 9.2 mph - N/A   Overcast
7:53 PM 39.0 °F 32.8 °F 30.0 °F 70% 29.96 in 10.0 mi West 9.2 mph - N/A   Overcast
8:53 PM 37.9 °F 32.7 °F 30.0 °F 73% 29.98 in 10.0 mi WSW 6.9 mph - N/A   Overcast
9:53 PM 37.9 °F 32.7 °F 28.9 °F 70% 30.01 in 10.0 mi West 6.9 mph - N/A   Overcast
10:53 PM 37.9 °F 33.5 °F 30.0 °F 73% 30.01 in 10.0 mi West 5.8 mph - N/A   Overcast
11:53 PM 37.9 °F 34.4 °F 30.0 °F 73% 30.02 in 10.0 mi WNW 4.6 mph - N/A   Overcast